Location: Bailen
(14.1842°N, 120.7958°E)
Time: 17:57:26
(UTC+00:00)

Cosmos 1758 - Pass Details

Date: 12 January 2026
Orbit: 479 x 500 km, 82.5° (Epoch: 17 February)

Event Time Altitude Azimuth Distance (km) Brightness Sun altitude
Rises 21:44:49 0° 182° (S) 2,587 7.0 -9.8°
Reaches altitude 10° 21:46:56 10° 181° (S) 1,704 6.1 -9.3°
Maximum altitude 21:50:40 80° 94° (E) 512 3.3 -8.5°
Drops below altitude 10° 21:54:23 10° 7° (N) 1,700 5.7 -7.6°
Sets 21:56:30 0° 6° (N) 2,581 6.6 -7.2°
